[TLELIST] Archives

 

[list_settings.list_name] Current TLEs

October 18th 2012 PDT

HST 1 20580U 90037B 12291.06346532 .00002576 00000-0 17502-3 0 908 2 20580 028.4693 065.7616 0002980 273.8185 086.2044 15.02902827 33076 ISS (ZARYA) 1 25544U 98067A 12292.37211964 .00007494 00000-0 13514-3 0 4850 2 25544 051.6484 229.4048 0016975 182.4072 270.0482 15.50726224797157 CXO 1 25867U 99040B 12293.24006617 -.00000036 00000-0 00000+0 0 8069 2 25867 073.6156 355.6911 8727829 278.1342 359.9545 00.37804607 9620 ____________________________________________________________________ These 2-Line ...Continue Reading

[list_settings.list_name] Current TLEs

October 17th 2012 PDT

HST 1 20580U 90037B 12291.06346532 .00002576 00000-0 17502-3 0 908 2 20580 028.4693 065.7616 0002980 273.8185 086.2044 15.02902827 33076 ISS (ZARYA) 1 25544U 98067A 12291.28952852 .00018722 00000-0 32334-3 0 4797 2 25544 051.6475 234.7700 0017454 175.5701 349.0580 15.50872665796983 CXO 1 25867U 99040B 12293.24006617 -.00000036 00000-0 00000+0 0 8069 2 25867 073.6156 355.6911 8727829 278.1342 359.9545 00.37804607 9620 ____________________________________________________________________ These 2-Line ...Continue Reading

[list_settings.list_name] Current TLEs

October 16th 2012 PDT

HST 1 20580U 90037B 12289.75348538 .00002496 00000-0 16927-3 0 898 2 20580 028.4706 074.3275 0002987 264.9493 193.5502 15.02895529 32887 ISS (ZARYA) 1 25544U 98067A 12290.31783432 .00018621 00000-0 32204-3 0 4734 2 25544 051.6476 239.5903 0017594 171.8936 324.1113 15.50835676796837 CXO 1 25867U 99040B 12290.59414201 -.00000004 00000-0 00000+0 0 8050 2 25867 073.5912 355.9108 8727334 278.1035 359.9120 00.37810405 9611 ____________________________________________________________________ These 2-Line ...Continue Reading

[list_settings.list_name] Current TLEs

October 15th 2012 PDT

HST 1 20580U 90037B 12286.87979462 .00001780 00000-0 11713-3 0 886 2 20580 028.4694 093.1583 0003254 225.1659 134.8622 15.02883605 32451 ISS (ZARYA) 1 25544U 98067A 12289.47378516 .00018505 00000-0 32046-3 0 4692 2 25544 051.6473 243.7776 0017565 168.6582 291.9461 15.50803110796709 CXO 1 25867U 99040B 12287.95051579 +.00000219 +00000-0 +00000-0 0 00017 2 25867 073.5646 356.1349 8724015 278.0908 000.0908 00.37807100015136 ____________________________________________________________________ These 2-Line ...Continue Reading

[list_settings.list_name] Current TLEs

October 14th 2012 PDT

HST 1 20580U 90037B 12286.87979462 .00001780 00000-0 11713-3 0 886 2 20580 028.4694 093.1583 0003254 225.1659 134.8622 15.02883605 32451 ISS (ZARYA) 1 25544U 98067A 12288.44141381 .00016079 00000-0 28005-3 0 4623 2 25544 051.6470 248.8980 0017519 165.0558 288.1814 15.50757063796549 CXO 1 25867U 99040B 12287.95051579 +.00000219 +00000-0 +00000-0 0 00017 2 25867 073.5646 356.1349 8724015 278.0908 000.0908 00.37807100015136 ____________________________________________________________________ These 2-Line ...Continue Reading

[list_settings.list_name] Current TLEs

October 13th 2012 PDT

HST 1 20580U 90037B 12286.87979462 .00001780 00000-0 11713-3 0 886 2 20580 028.4694 093.1583 0003254 225.1659 134.8622 15.02883605 32451 ISS (ZARYA) 1 25544U 98067A 12287.21570002 .00013385 00000-0 23489-3 0 4564 2 25544 051.6473 254.9757 0017559 160.9382 285.0476 15.50715362796350 CXO 1 25867U 99040B 12287.95297411 +.00000218 +00000-0 +00000-0 0 00013 2 25867 073.5645 356.1346 8724000 278.0915 000.4256 00.37807025015130 ____________________________________________________________________ These 2-Line ...Continue Reading

[list_settings.list_name] Current TLEs

October 12th 2012 PDT

HST 1 20580U 90037B 12285.88367658 .00001960 00000-0 13027-3 0 873 2 20580 028.4696 099.6806 0003251 215.2343 144.8032 15.02881226 32306 ISS (ZARYA) 1 25544U 98067A 12286.20157407 .00014929 00000-0 26117-3 0 4524 2 25544 051.6478 260.0048 0017770 156.9019 023.9706 15.50692965796193 CXO 1 25867U 99040B 12287.95307252 .00000218 00000-0 00000+0 0 8037 2 25867 073.5645 356.1346 8723998 278.0915 000.4390 00.37807073 9602 ____________________________________________________________________ These 2-Line ...Continue Reading

[list_settings.list_name] Current TLEs

October 11th 2012 PDT

HST 1 20580U 90037B 12284.95396560 .00001913 00000-0 12687-3 0 862 2 20580 028.4694 105.7673 0003248 206.4993 153.5499 15.02877865 32166 ISS (ZARYA) 1 25544U 98067A 12285.23575231 .00017139 00000-0 29882-3 0 4477 2 25544 051.6473 264.7943 0017788 153.6581 032.0142 15.50668348796047 CXO 1 25867U 99040B 12285.30758405 .00000360 00000-0 00000+0 0 8021 2 25867 073.5395 356.3076 8722953 278.1178 000.2524 00.37802373 9591 ____________________________________________________________________ These 2-Line ...Continue Reading

[list_settings.list_name] Current TLEs

October 10th 2012 PDT

HST 1 20580U 90037B 12283.95784316 .00001674 00000-0 10945-3 0 859 2 20580 028.4690 112.2887 0003228 196.1785 163.8739 15.02873525 32018 ISS (ZARYA) 1 25544U 98067A 12284.19169663 .00011016 00000-0 19543-3 0 4425 2 25544 051.6474 269.9725 0017609 150.0542 323.4849 15.50623412795888 CXO 1 25867U 99040B 12285.30758405 .00000360 00000-0 00000+0 0 8021 2 25867 073.5395 356.3076 8722953 278.1178 000.2524 00.37802373 9591 ____________________________________________________________________ These 2-Line ...Continue Reading

[list_settings.list_name] Current TLEs

October 9th 2012 PDT

HST 1 20580U 90037B 12280.03973265 .00001913 00000-0 12694-3 0 835 2 20580 028.4676 137.9410 0003298 159.0709 200.9666 15.02863149 31426 ISS (ZARYA) 1 25544U 98067A 12283.42674131 .00010470 00000-0 18627-3 0 4370 2 25544 051.6477 273.7627 0018032 146.9011 013.6697 15.50596635795763 CXO 1 25867U 99040B 12282.66271751 +.00000284 +00000-0 +00000-0 0 00018 2 25867 073.5061 356.5096 8725133 278.1320 000.1446 00.37803331015119 ____________________________________________________________________ These 2-Line ...Continue Reading
  • This mailing list is a public mailing list - anyone may join or leave, at any time.
  • This mailing list is announce-only.

International Space Station (ISS) / Hubble Space Telescope (HST) / Chandra X-Ray Observatory Orbital Data via EMAIL

Privacy Policy:

Private list